Miscellaneous Local Product
Issued by NWS Hastings, NE

Home | Current Version | Previous Version | Text Only | Print | Product List | Glossary Off
Versions: 1 2 3 4 5 6 7 8 9 10 11 12 13 14 15 16 17 18 19 20 21 22 23 24 25 26 27 28 29 30 31 32 33 34 35 36 37 38 39 40 41 42 43 44 45 46 47 48 49 50

000
AXUS43 KGID 180502
MISGRI

GID CWA HOURLY WEATHER ROUNDUP
NATIONAL WEATHER SERVICE HASTINGS NE
1200 AM CDT WED OCT 18 2017

NOTE: "FAIR" INDICATES FEW OR NO CLOUDS BELOW 12,000 FEET WITH NO
SIGNIFICANT WEATHER AND/OR OBSTRUCTIONS TO VISIBILITY.

...SOUTH CENTRAL NEBRASKA...

CITY           SKY/WX    TMP DP  RH WIND       PRES   REMARKS
GRAND ISLAND   CLEAR     55  45  68 S10       29.95F
HASTINGS       CLEAR     56  43  61 S8        29.97F
KEARNEY        CLEAR     53  42  66 S9        29.95F
ORD            CLEAR     52  37  56 S9        29.91F
YORK           CLEAR     54  46  76 S9        29.97F
AURORA         CLEAR     57  44  62 S9        29.96F
LEXINGTON      CLEAR     53  37  55 SE5       29.96F
HOLDREGE       CLEAR     55  41  60 S9        29.96F
HEBRON         CLEAR     56  47  71 S8        29.99F

...NEBRASKA PANHANDLE...

CITY           SKY/WX    TMP DP  RH WIND       PRES   REMARKS
CHADRON        CLOUDY    44  23  43 SW9       29.88S
ALLIANCE       CLOUDY    38  24  57 SW5       29.94F WCI  34
SCOTTSBLUFF    CLOUDY    44  27  51 NE6       29.96F
SIDNEY         CLOUDY    42  24  49 W8        30.01F

...WESTERN AND NORTH CENTRAL NEBRASKA...

CITY           SKY/WX    TMP DP  RH WIND       PRES   REMARKS
VALENTINE      CLEAR     55  29  36 SW12      29.85F
AINSWORTH      CLEAR     54  32  43 SW14      29.88F
ONEILL         CLEAR     54  41  62 S6        29.89F
BROKEN BOW     CLEAR     56  38  50 S6        29.93F
IMPERIAL       CLEAR     47  29  49 SW7       29.99S
NORTH PLATTE   CLEAR     58  35  42 S9        29.94F
MCCOOK         CLEAR     55  35  47 SW10      29.96F

...EASTERN NEBRASKA...

CITY           SKY/WX    TMP DP  RH WIND       PRES   REMARKS
NORFOLK        CLEAR     54  45  71 S10       29.93F
SO SIOUX CITY  CLEAR     47  45  93 SE7       29.94F
TEKAMAH        CLEAR     45  42  89 SE6       29.97F
COLUMBUS       CLEAR     53  45  74 SE3       29.96F
ALBION         CLEAR     56  43  62 SE5       29.94F
OMAHA EPPLEY   CLEAR     53  45  74 SE7       29.99F
OFFUTT AFB     CLEAR     47  43  87 SE3       29.99S
MILLARD        CLEAR     53  48  82 SE3       29.99F
LINCOLN        PTCLDY    52  46  80 SE6       30.00S
NEBRASKA CITY  PTCLDY    55  48  76 S10       30.01F
BEATRICE       CLEAR     56  47  73 S7        30.01S
FALLS CITY     CLEAR     57  47  69 S9        30.03S

...NORTHERN KANSAS...

CITY           SKY/WX    TMP DP  RH WIND       PRES   REMARKS
GOODLAND       CLOUDY    58  32  37 S15       30.03S
HILL CITY      CLEAR     60  42  51 SW6       30.00F
NORTON         CLEAR     57  37  47 S10       29.97S
PHILLIPSBURG   CLEAR     48  39  71 W5        29.98S
SMITH CENTER   MOCLDY    52  45  76 S8        29.99F
HAYS           CLEAR     53  42  66 S6        30.03S
RUSSELL        CLEAR     57  44  62 S15       30.00F
CONCORDIA      CLEAR     57  47  69 S15       30.00F
SALINA         CLEAR     60  47  61 S13       30.03F
TOPEKA         PTCLDY    58  48  69 S10       30.07S



USA.gov is the U.S. government's official web portal to all federal, state and local government web resources and services.